This demonstration page uses our WeatherBlox Daily Observations layout. Learn more.

Left ArrowRight Arrow

39.29038, -76.61219

Hourly Observations for May 11, 2017

Temp ( °F °C ) Dew Point ( °F °C ) Humidity (%) Winds ( mph kmh ) Pressure ( in mb ) Visibility ( mi km ) Precip ( " mm )
12:54 am 00:54 undefined 63 17.2 40 4.4 43 43 undefined N/A 29.99 1016 N/A N/A
1:54 am 01:54 undefined 60 15.6 50 10 70 70 undefined N/A 29.98 1015 N/A N/A
2:54 am 02:54 undefined 59 15 51 10.6 75 75 undefined N/A 29.97 1015 N/A N/A
3:54 am 03:54 undefined 58 14.4 51 10.6 78 78 undefined N/A 29.96 1015 N/A N/A
4:54 am 04:54 undefined 58 14.4 51 10.6 78 78 undefined N/A 29.96 1014 N/A N/A
5:54 am 05:54 undefined 58 14.4 51 10.6 78 78 undefined N/A 29.95 1014 N/A N/A
6:54 am 06:54 undefined 56 13.3 48 8.9 75 75 undefined N/A 29.97 1015 N/A N/A
7:54 am 07:54 undefined 57 13.9 50 10 78 78 undefined N/A 29.96 1015 N/A N/A
8:54 am 08:54 undefined 58 14.4 49 9.4 72 72 undefined N/A 29.95 1014 N/A N/A
9:54 am 09:54 undefined 57 13.9 50 10 78 78 undefined N/A 29.95 1014 N/A N/A
10:54 am 10:54 undefined 56 13.3 50 10 81 81 undefined N/A 29.94 1014 N/A 0.06 1.52
11:54 am 11:54 undefined 55 12.8 51 10.6 87 87 undefined N/A 29.93 1014 N/A 0.03 0.76
12:54 pm 12:54 undefined 53 11.7 47 8.3 80 80 undefined N/A 29.93 1014 N/A 0.03 0.76
1:54 pm 13:54 undefined 54 12.2 49 9.4 83 83 undefined N/A 29.93 1014 N/A 0.05 1.27
2:54 pm 14:54 undefined 53 11.7 48 8.9 83 83 undefined N/A 29.94 1014 N/A 0.03 0.76
3:54 pm 15:54 undefined 53 11.7 48 8.9 83 83 undefined N/A 29.95 1014 N/A 0.04 1.02
4:54 pm 16:54 undefined 53 11.7 49 9.4 86 86 undefined N/A 29.95 1014 N/A 0.03 0.76
5:54 pm 17:54 undefined 53 11.7 47 8.3 80 80 undefined N/A 29.96 1015 N/A 0.01 0.25
6:54 pm 18:54 undefined 54 12.2 48 8.9 80 80 undefined N/A 29.98 1015 N/A N/A
7:54 pm 19:54 undefined 53 11.7 46 7.8 77 77 undefined N/A 29.99 1016 N/A N/A
8:54 pm 20:54 undefined 54 12.2 46 7.8 75 75 undefined N/A 30.00 1016 N/A N/A
9:54 pm 21:54 undefined 54 12.2 44 6.7 69 69 undefined N/A 30.01 1016 N/A N/A
10:54 pm 22:54 undefined 54 12.2 45 7.2 72 72 undefined N/A 30.01 1016 N/A N/A
11:54 pm 23:54 undefined 54 12.2 45 7.2 72 72 undefined N/A 30.01 1016 N/A N/A

Powered by AerisWeather